Location: Abraham Lincoln Continuation High School
(33.9711°N, 117.3662°W)
Time: 04:47:25
(UTC+00:00)

Cosmos 1536 Rocket - Pass Details

Date: 21 September 2020
Orbit: 606 x 632 km, 82.5° (Epoch: 25 October)

Event Time Altitude Azimuth Distance (km) Brightness Sun altitude
Rises 03:15:33 0° 359° (N) 2,916 7.2 -18.8°
Reaches altitude 10° 03:17:49 10° 4° (N) 2,008 6.3 -19.2°
Maximum altitude 03:22:11 54° 82° (E) 767 3.6 -20.1°
Enters shadow 03:22:44 50° 110° (ESE) 801 3.7 -20.2°
